| time (UTC) | temp F | wind direction | speed knots | gust knots | rain 1hr in | rain 24hr in | rain mn in | humidity % | barometer mb |
| 20260505100924 | 56 | 42 | 7.0 | 13.9 | 0.00 | 0.00 | 0.00 | 62 | 1000.8 |
| 20260505095925 | 56 | 33 | 8.7 | 13.9 | 0.00 | 0.00 | 0.00 | 63 | 1000.9 |
| 20260505094924 | 56 | 26 | 8.7 | 19.1 | 0.00 | 0.00 | 0.00 | 64 | 1000.4 |
| 20260505093925 | 56 | 29 | 7.8 | 12.2 | 0.00 | 0.00 | 0.00 | 66 | 1000.3 |
| 20260505092925 | 57 | 32 | 7.0 | 10.4 | 0.00 | 0.00 | 0.00 | 68 | 1000.1 |
| 20260505091924 | 58 | 31 | 7.0 | 13.0 | 0.00 | 0.00 | 0.00 | 67 | 1000.1 |
| 20260505090925 | 58 | 34 | 6.1 | 10.4 | 0.00 | 0.00 | 0.00 | 67 | 1000.1 |
| 20260505085924 | 59 | 32 | 6.1 | 12.2 | 0.00 | 0.00 | 0.00 | 70 | 999.6 |
| 20260505084925 | 60 | 20 | 6.1 | 14.8 | 0.00 | 0.00 | 0.00 | 71 | 999.6 |
| 20260505083925 | 60 | 35 | 7.8 | 13.9 | 0.00 | 0.00 | 0.00 | 71 | 999.5 |
| 20260505082924 | 61 | 36 | 7.0 | 10.4 | 0.00 | 0.00 | 0.00 | 73 | 999.2 |
| 20260505081924 | 62 | 25 | 6.1 | 8.7 | 0.00 | 0.00 | 0.00 | 73 | 999.0 |
| 20260505080925 | 64 | 29 | 8.7 | 10.4 | 0.00 | 0.00 | 0.00 | 70 | 998.8 |
| 20260505075924 | 65 | 49 | 7.8 | 13.9 | 0.00 | 0.00 | 0.00 | 67 | 998.6 |
| 20260505074925 | 66 | 26 | 5.2 | 7.8 | 0.00 | 0.00 | 0.00 | 66 | 998.1 |
| 20260505073924 | 67 | 32 | 5.2 | 10.4 | 0.00 | 0.00 | 0.00 | 71 | 998.1 |
| 20260505072925 | 68 | 27 | 7.8 | 10.4 | 0.00 | 0.00 | 0.00 | 73 | 998.0 |
| 20260505071923 | 68 | 22 | 4.3 | 7.8 | 0.00 | 0.00 | 0.00 | 71 | 998.0 |
| 20260505070924 | 69 | 26 | 1.7 | 2.6 | 0.00 | 0.00 | 0.00 | 71 | 997.7 |
| 20260505065925 | 69 | 32 | 0.9 | 0.9 | 0.00 | 0.00 | 0.00 | 71 | 997.8 |
| 20260505064924 | 69 | 30 | 0.9 | 4.3 | 0.00 | 0.00 | 0.00 | 69 | 997.5 |
| 20260505063925 | 69 | 25 | 2.6 | 6.1 | 0.00 | 0.00 | 0.00 | 70 | 997.7 |
| 20260505062924 | 70 | 43 | 2.6 | 5.2 | 0.00 | 0.00 | 0.00 | 70 | 997.3 |
| 20260505061925 | 70 | 26 | 0.9 | 2.6 | 0.00 | 0.00 | 0.00 | 69 | 997.2 |
| 20260505060925 | 70 | 55 | 0.9 | 1.7 | 0.00 | 0.00 | 0.00 | 69 | 997.0 |
| 20260505055925 | 70 | 206 | 1.7 | 2.6 | 0.00 | 0.00 | 0.00 | 69 | 996.8 |
| 20260505054924 | 70 | 181 | 4.3 | 7.8 | 0.00 | 0.00 | 0.00 | 68 | 996.8 |
| 20260505053925 | 71 | 188 | 7.0 | 11.3 | 0.00 | 0.00 | 0.00 | 68 | 996.7 |
| 20260505052924 | 71 | 188 | 7.8 | 12.2 | 0.00 | 0.00 | 0.00 | 68 | 996.8 |
| 20260505051925 | 71 | 173 | 4.3 | 6.1 | 0.00 | 0.00 | 0.00 | 65 | 996.7 |
| 20260505050924 | 71 | 171 | 6.1 | 12.2 | 0.00 | 0.00 | 0.00 | 64 | 996.5 |
| 20260505040924 | 71 | 165 | 0.0 | 2.6 | 0.00 | 0.00 | 0.00 | 69 | 996.5 |
| 20260505035923 | 72 | 183 | 0.9 | 2.6 | 0.00 | 0.00 | 0.00 | 68 | 996.6 |
| 20260505034925 | 73 | 179 | 4.3 | 7.8 | 0.00 | 0.00 | 0.00 | 67 | 996.6 |
| 20260505033924 | 73 | 194 | 6.1 | 8.7 | 0.00 | 0.00 | 0.00 | 66 | 996.3 |
| 20260505032923 | 74 | 176 | 2.6 | 5.2 | 0.00 | 0.00 | 0.00 | 65 | 996.6 |
| 20260505031924 | 74 | 196 | 1.7 | 2.6 | 0.00 | 0.00 | 0.00 | 64 | 997.0 |
| 20260505030923 | 74 | 188 | 5.2 | 8.7 | 0.00 | 0.00 | 0.00 | 63 | 996.9 |
| 20260505025924 | 74 | 178 | 2.6 | 5.2 | 0.00 | 0.00 | 0.00 | 63 | 997.1 |
| 20260505024923 | 75 | 188 | 4.3 | 5.2 | 0.00 | 0.00 | 0.00 | 62 | 997.3 |
| 20260505023924 | 75 | 187 | 5.2 | 7.8 | 0.00 | 0.00 | 0.00 | 61 | 997.1 |
| 20260505022924 | 75 | 192 | 2.6 | 4.3 | 0.00 | 0.00 | 0.00 | 61 | 997.2 |
| 20260505021925 | 75 | 184 | 5.2 | 8.7 | 0.00 | 0.00 | 0.00 | 60 | 997.1 |
| 20260505020924 | 75 | 195 | 4.3 | 7.8 | 0.00 | 0.00 | 0.00 | 59 | 997.6 |
| 20260505015925 | 76 | 194 | 1.7 | 4.3 | 0.00 | 0.00 | 0.00 | 59 | 997.5 |
| 20260505014923 | 76 | 176 | 5.2 | 5.2 | 0.00 | 0.00 | 0.00 | 58 | 996.9 |
| 20260505013925 | 76 | 192 | 4.3 | 5.2 | 0.00 | 0.00 | 0.00 | 56 | 996.9 |
| 20260505012924 | 77 | 216 | 1.7 | 2.6 | 0.00 | 0.00 | 0.00 | 55 | 996.8 |
| 20260505011925 | 77 | 181 | 1.7 | 6.1 | 0.00 | 0.00 | 0.00 | 54 | 996.8 |
| 20260505010924 | 77 | 165 | 2.6 | 5.2 | 0.00 | 0.00 | 0.00 | 53 | 996.7 |
| 20260505005925 | 78 | 205 | 4.3 | 6.1 | 0.00 | 0.00 | 0.00 | 53 | 996.4 |
| 20260505004924 | 78 | 174 | 4.3 | 5.2 | 0.00 | 0.00 | 0.00 | 52 | 996.3 |
| 20260505003925 | 79 | 173 | 2.6 | 4.3 | 0.00 | 0.00 | 0.00 | 51 | 996.6 |
| 20260505002924 | 79 | 184 | 1.7 | 5.2 | 0.00 | 0.00 | 0.00 | 50 | 996.5 |
| 20260505001924 | 80 | 178 | 4.3 | 5.2 | 0.00 | 0.00 | 0.00 | 48 | 996.5 |
| 20260505000925 | 80 | 186 | 2.6 | 4.3 | 0.00 | 0.00 | 0.00 | 48 | 996.5 |
| 20260504235923 | 80 | 177 | 4.3 | 5.2 | 0.00 | 0.00 | 0.00 | 47 | 996.8 |
| 20260504234924 | 80 | 190 | 2.6 | 5.2 | 0.00 | 0.00 | 0.00 | 47 | 996.8 |
| 20260504233924 | 80 | 181 | 2.6 | 10.4 | 0.00 | 0.00 | 0.00 | 47 | 996.8 |
| 20260504232925 | 80 | 192 | 2.6 | 6.1 | 0.00 | 0.00 | 0.00 | 46 | 996.9 |
| 20260504231924 | 81 | 196 | 4.3 | 6.1 | 0.00 | 0.00 | 0.00 | 45 | 996.8 |
| 20260504230924 | 81 | 194 | 5.2 | 10.4 | 0.00 | 0.00 | 0.00 | 44 | 996.7 |
| 20260504225925 | 82 | 249 | 0.9 | 7.8 | 0.00 | 0.00 | 0.00 | 44 | 996.7 |
| 20260504224924 | 82 | 196 | 1.7 | 8.7 | 0.00 | 0.00 | 0.00 | 45 | 996.7 |
| 20260504223924 | 82 | 204 | 4.3 | 6.1 | 0.00 | 0.00 | 0.00 | 42 | 996.7 |
| 20260504222923 | 82 | 211 | 2.6 | 8.7 | 0.00 | 0.00 | 0.00 | 43 | 996.7 |
| 20260504221924 | 82 | 268 | 2.6 | 4.3 | 0.00 | 0.00 | 0.00 | 43 | 996.7 |
| 20260504220923 | 82 | 207 | 4.3 | 8.7 | 0.00 | 0.00 | 0.00 | 42 | 996.8 |
| 20260504215924 | 83 | 233 | 6.1 | 6.1 | 0.00 | 0.00 | 0.00 | 40 | 996.8 |
| 20260504214923 | 83 | 238 | 1.7 | 8.7 | 0.00 | 0.00 | 0.00 | 41 | 996.9 |
| 20260504213924 | 83 | 177 | 6.1 | 13.9 | 0.00 | 0.00 | 0.00 | 40 | 997.0 |
| 20260504212923 | 83 | 187 | 6.1 | 12.2 | 0.00 | 0.00 | 0.00 | 41 | 997.1 |
| 20260504211924 | 83 | 189 | 2.6 | 6.1 | 0.00 | 0.00 | 0.00 | 41 | 997.1 |
| 20260504210923 | 83 | 192 | 6.1 | 11.3 | 0.00 | 0.00 | 0.00 | 40 | 997.2 |
| 20260504205924 | 83 | 190 | 5.2 | 7.0 | 0.00 | 0.00 | 0.00 | 40 | 997.3 |
| 20260504204925 | 84 | 189 | 4.3 | 8.7 | 0.00 | 0.00 | 0.00 | 41 | 997.4 |
| 20260504203924 | 84 | 182 | 6.1 | 8.7 | 0.00 | 0.00 | 0.00 | 39 | 997.5 |
| 20260504202923 | 85 | 270 | 2.6 | 1.7 | 0.00 | 0.00 | 0.00 | 38 | 997.5 |
| 20260504201924 | 85 | 195 | 6.1 | 10.4 | 0.00 | 0.00 | 0.00 | 39 | 997.5 |
| 20260504200923 | 85 | 187 | 5.2 | 6.1 | 0.00 | 0.00 | 0.00 | 38 | 997.7 |
| 20260504195924 | 84 | 260 | 0.9 | 2.6 | 0.00 | 0.00 | 0.00 | 39 | 997.7 |
| 20260504194924 | 85 | 285 | 0.9 | 1.7 | 0.00 | 0.00 | 0.00 | 37 | 998.0 |
| 20260504193925 | 85 | 210 | 1.7 | 11.3 | 0.00 | 0.00 | 0.00 | 38 | 998.0 |
| 20260504192924 | 85 | 229 | 1.7 | 4.3 | 0.00 | 0.00 | 0.00 | 39 | 998.0 |
| 20260504191925 | 84 | 211 | 6.1 | 8.7 | 0.00 | 0.00 | 0.00 | 38 | 998.2 |
| 20260504190923 | 84 | 262 | 0.9 | 1.7 | 0.00 | 0.00 | 0.00 | 40 | 998.2 |
| 20260504185924 | 84 | 209 | 0.9 | 2.6 | 0.00 | 0.00 | 0.00 | 41 | 998.4 |
| 20260504184923 | 83 | 177 | 5.2 | 8.7 | 0.00 | 0.00 | 0.00 | 40 | 998.5 |
| 20260504183924 | 83 | 267 | 0.9 | 1.7 | 0.00 | 0.00 | 0.00 | 39 | 998.5 |
| 20260504182923 | 83 | 218 | 1.7 | 7.8 | 0.00 | 0.00 | 0.00 | 40 | 998.6 |
| 20260504181924 | 82 | 279 | 0.9 | 0.9 | 0.00 | 0.00 | 0.00 | 40 | 998.8 |
| 20260504180925 | 81 | 290 | 1.7 | 2.6 | 0.00 | 0.00 | 0.00 | 40 | 999.1 |
| 20260504175923 | 81 | 288 | 0.9 | 1.7 | 0.00 | 0.00 | 0.00 | 42 | 999.2 |
| 20260504174924 | 80 | 287 | 1.7 | 1.7 | 0.00 | 0.00 | 0.00 | 42 | 999.2 |
| 20260504173923 | 80 | 281 | 0.9 | 0.9 | 0.00 | 0.00 | 0.00 | 42 | 999.2 |
| 20260504172923 | 79 | 263 | 0.9 | 1.7 | 0.00 | 0.00 | 0.00 | 42 | 999.3 |
| 20260504171924 | 79 | 204 | 1.7 | 6.1 | 0.00 | 0.00 | 0.00 | 43 | 999.3 |
| 20260504170923 | 78 | 292 | 0.9 | 1.7 | 0.00 | 0.00 | 0.00 | 43 | 999.3 |
| 20260504150926 | 71 | 257 | 0.9 | 2.6 | 0.00 | 0.00 | 0.00 | 53 | 1000.1 |
| 20260504140925 | 67 | 283 | 0.9 | 0.9 | 0.00 | 0.00 | 0.00 | 56 | 1000.6 |